Hourly Data Report for May 17, 2016

LA RONGE RCS
SASKATCHEWAN

55°08'47.020" N
105°16'13.030" W
378.60 m
4064149
71586
XOX

Download Data

Hourly Data (May 2016)
Hourly Data Report for May 17, 2016
TIME
LST
Temp Definition
°C
Dew Point Definition
°C
Rel Hum Definition
%
Precip. Amount Definition
mm

Wind Dir Definition
10's deg

Wind Spd Definition
km/h
Visibility Definition
km
Stn Press Definition
kPa
Hmdx Definition


Wind Chill Definition


Weather Definition


00:00 16.5 -0.4 32 0.0 19 12   97.15     LegendNANA
01:00 15.3 -0.3 34 0.0 20 11   97.15     LegendNANA
02:00 14.1 -0.2 37 0.0 22 6   97.18     LegendNANA
03:00 13.6 0.0 39 0.0 21 7   97.19     LegendNANA
04:00 13.0 0.1 41 0.0 22 8   97.21     LegendNANA
05:00 12.4 0.3 43 0.0 22 8   97.22     LegendNANA
06:00 13.2 0.9 43 0.0 21 12   97.23     LegendNANA
07:00 14.5 1.5 41 0.0 21 10   97.24     LegendNANA
08:00 15.7 2.3 40 0.0 20 9   97.25     LegendNANA
09:00 18.7 1.8 32 0.0 22 12   97.24     LegendNANA
10:00 21.6 1.0 26 0.0 22 16   97.20     LegendNANA
11:00 23.6 -0.9 20 0.0 20 28   97.15     LegendNANA
12:00 24.2 0.1 20 0.0 20 23   97.11     LegendNANA
13:00 23.4 0.2 22 0.0 21 19   97.08     LegendNANA
14:00
15:00
16:00
17:00
18:00 20.9 3.2 31 0.0 29 10   96.92     LegendNANA
19:00 20.2 3.3 33 0.0 29 6   96.86     LegendNANA
20:00 19.1 3.8 36 0.0 0 1   96.81     LegendNANA
21:00 17.6 4.6 42 0.0 17 7   96.81     LegendNANA
22:00 15.2 4.2 48 0.0 16 7   96.80     LegendNANA
23:00 13.4 4.1 53 0.0 17 8   96.77     LegendNANA

Notes on Data Quality.

Legend

  • E = Estimated
  • M = Missing
  • NA = Not Available*
  • [empty] = Indicates an unobserved value
Date modified: